Tracking 29089 objects as of 12-Jul-2024
HD Live streaming from Space Station
objects crossing your sky now

STARLINK-31811

Track STARLINK-31811 now!
10-day predictions
STARLINK-31811 is classified as:


NORAD ID: 60051
Int'l Code: 2024-112P
Perigee: 436.9 km
Apogee: 438.2 km
Inclination: 53.2 °
Period: 93.2 minutes
Semi major axis: 6808 km
RCS: Unknown
Launch date: June 8, 2024
Source: United States (US)
Launch site: AIR FORCE WESTERN TEST RANGE (AFWTR)
Your satellite tracking list
Your tracking list is empty




NASA's NSSDC Master Catalog

Two Line Element Set (TLE):
1 60051U 24112P   24194.25001157 -.02182114  00000-0 -51045-1 0  9990
2 60051  53.1606  15.4847 0000947  88.1306  20.8864 15.45337926  6256
Source of the keplerian elements: AFSPC